Location: Fredericksburg
(30.2750°N, 98.8720°W)
Time: 16:10:33
(UTC-05:00)

Daily predictions for brighter satellites

Satellite Brightness Start Highest point End
(mag) Time Altitude Azimuth Time Altitude Azimuth Time Altitude Azimuth
Cosmos 909 Rocket 4.2 20:45:12 10° SSW 20:51:29 86° ESE 20:58:46 10° NNE
Cosmos 1943 3.8 20:46:44 10° NNW 20:52:17 61° WSW 20:57:47 10° S
Intelsat 3F5 C 4.2 20:52:34 10° WSW 20:55:57 63° S 20:59:03 10° E
FENGYUN 3A 4.0 20:53:25 10° SSE 20:58:36 50° ENE 21:03:47 10° N
Helios 1A 4.3 20:55:56 10° S 20:59:52 42° W 21:03:50 10° NNW
CENTAUR R/B 3.4 20:56:27 10° NNW 21:04:19 56° ENE 21:12:27 10° SE
Meteor 2-10 Rocket 4.2 21:00:01 10° N 21:05:26 42° ENE 21:10:42 10° SSE
Cosmos 2181 Rocket 4.1 21:00:49 10° N 21:07:15 87° E 21:13:35 10° S
Okean 1-7 3.2 21:05:10 10° N 21:09:28 80° W 21:13:48 10° S
Cosmos 724 4.5 21:04:12 10° NNW 21:10:25 89° WSW 21:16:38 10° SSE
CZ-2D R/B 3.2 21:07:10 10° SSE 21:10:56 67° ENE 21:14:43 10° N
ISS -3.5 21:07:50 10° SW 21:11:04 78° SE 21:14:18 10° NE
Centaur D-1A AC-32 3.4 21:05:14 10° WSW 21:13:50 38° S 21:16:51 12° ESE
USA 186 1.8 21:10:59 10° SSE 21:13:56 53° ENE 21:17:04 10° N
Cosmos 2056 Rocket 3.5 21:09:29 10° SSW 21:14:40 88° WNW 21:19:49 10° NNE
Cosmos 2074 Rocket 4.0 21:10:34 10° S 21:16:48 71° E 21:23:02 10° N
Orbus 7S 4.4 21:10:05 10° W 21:17:56 58° S 21:20:27 14° ESE
Meteor 2-3 Rocket 4.4 21:14:19 10° SSW 21:19:51 60° W 21:25:23 10° N
OAO 3 Rocket 3.5 21:20:35 10° SW 21:25:19 46° SSE 21:30:03 10° E
ATLAS 2A CENTAUR R/B 1.5 21:22:59 10° WSW 21:27:16 32° S 21:28:14 22° SE
Resurs 01 Rocket 4.0 21:25:06 10° SSW 21:28:33 23° W 21:32:01 10° NW
Cosmos 1674 Rocket 4.2 21:25:54 10° NNE 21:30:02 38° E 21:33:03 17° SE
SL-27 R/B 3.1 21:30:46 10° N 21:34:11 39° ENE 21:35:57 22° SE
Sich 1 Rocket 3.7 21:31:23 10° S 21:35:51 55° E 21:40:20 10° NNE
Cosmos 1606 4.0 21:33:32 10° NNE 21:36:43 23° E 21:37:46 21° ESE
Cosmos 1892 3.8 21:33:18 10° SSW 21:36:58 47° W 21:40:42 10° N
PSLV R/B 4.1 21:35:27 10° NW 21:38:43 41° NNE 21:40:36 21° E
Meteosat 1 Rocket2 4.0 21:35:10 10° W 21:40:30 76° S 21:47:26 15° E
Meteor 1-27 Rocket 4.4 21:35:44 10° NNE 21:40:44 34° ENE 21:43:36 21° SE
CZ-4 DEB 2.6 21:43:16 20° SSE 21:45:19 90° WNW 21:48:30 10° NNW
H-2A R/B 3.9 21:43:56 10° S 21:47:24 40° W 21:50:56 10° NNW
GPS 2-05 Rocket1 3.9 21:43:54 10° W 21:47:29 45° NNW 21:50:40 12° ENE
Cosmos 1782 2.8 21:44:12 10° N 21:48:12 64° E 21:50:33 23° SSE
Coronas F rocket 4.2 21:46:43 10° SW 21:48:40 19° W 21:50:39 10° NNW
Envisat 3.5 21:46:06 23° SE 21:48:48 42° ENE 21:53:34 10° N
ERBS 2.3 21:46:16 10° NW 21:49:44 82° SW 21:51:07 34° SSE
APEX 4.3 21:51:35 26° E 21:51:35 26° E 21:54:42 10° NE
Abrixas rocket 4.1 21:48:20 10° WNW 21:51:09 24° SW 21:52:48 17° S
COSMOS 2487 4.5 21:50:11 10° NNE 21:52:14 16° ENE 21:52:14 16° ENE
SEDSat Delta rocket 3.1 21:48:33 10° SW 21:52:47 47° SSE 21:54:13 32° ESE
Cosmos 1939 Rocket 2.9 21:53:45 33° SE 21:55:11 53° ENE 21:58:59 10° N
Cosmos 2341 Rocket 4.1 21:52:34 13° SSE 21:58:06 55° E 22:04:13 10° NNE
Cosmos 1420 Rocket 4.2 21:55:11 15° S 21:59:14 47° ESE 22:04:14 10° NNE
Atlas Centaur 2 0.8 21:56:18 10° W 21:59:53 81° S 22:00:48 47° ESE
Cosmos 1975 Rocket 4.3 21:56:51 10° NNE 22:00:23 24° E 22:00:23 24° E
OAO 1 Rocket 4.4 21:58:46 10° WSW 22:04:06 86° NNW 22:08:18 16° ENE
Cosmos 1908 Rocket 3.5 22:00:01 11° S 22:04:09 86° W 22:08:35 10° N
ERS-1 Rocket 3.0 22:02:39 20° S 22:06:09 81° WSW 22:11:12 10° NNW
IUS-26 SRM-1 4.1 22:10:09 10° WSW 22:10:36 15° SW 22:10:36 15° SW
SL-8 Rocket 4.5 22:10:09 32° SE 22:12:02 40° E 22:17:47 10° NNE
Cosmos 1378 Rocket 3.6 22:08:10 10° N 22:12:24 56° E 22:13:08 49° ESE
Cosmos 962 Rocket 4.4 22:07:35 16° S 22:12:39 74° E 22:18:49 10° N
ATLAS 5 CENTAUR R/B 2.8 22:06:36 10° NW 22:12:43 61° WSW 22:16:44 23° S
Cosmos 407 Rocket 3.4 22:07:36 10° NNW 22:12:55 88° ENE 22:15:21 34° SSE
H-2A R/B 4.2 22:13:15 12° ENE 22:13:19 12° ENE 22:15:12 10° NE
deb Chang Zheng 4 4.2 22:12:47 10° N 22:17:08 58° WNW 22:21:29 10° SSW
UNK 4.4 22:11:29 10° NNE 22:17:31 59° ESE 22:20:24 30° S
Cosmos 1452 Rocket 4.3 22:12:29 10° SSW 22:17:35 52° WNW 22:22:44 10° N
YAOGAN 6 4.0 22:18:38 26° NE 22:18:38 26° NE 22:20:48 10° NNE
Cosmos 1140 Rocket 4.3 22:14:02 10° N 22:18:39 32° ENE 22:19:08 32° E
Cosmos 1408 2.7 22:18:18 43° SSW 22:19:22 73° W 22:23:01 10° N
Cosmos 1825 2.6 22:22:41 34° SSW 22:24:08 61° W 22:27:54 10° N
Cosmos 2154 Rocket 4.3 22:18:24 10° SSW 22:24:34 66° W 22:30:44 10° N
Cosmos 1242 Rocket 4.1 22:22:41 10° NNE 22:24:43 25° NE 22:24:43 25° NE
COSMOS 2406 4.3 22:21:54 10° NW 22:27:11 39° WSW 22:30:54 18° SSW
SPOT 1/Viking Rocket 4.1 22:28:03 38° E 22:28:23 39° ENE 22:33:11 10° N
Cosmos 2278 Rocket 2.9 22:23:57 10° SW 22:29:28 54° WNW 22:35:02 10° N
USA 234 3.5 22:23:34 10° NE 22:29:42 43° SE 22:35:48 10° SSW
CZ-4B R/B 3.4 22:26:25 10° NNE 22:31:08 56° E 22:31:08 56° E
Cosmos 1295 Rocket 4.4 22:29:09 33° S 22:32:12 76° E 22:38:29 10° N
Cosmos 1184 Rocket 3.6 22:32:42 48° W 22:32:43 48° W 22:35:58 10° N
Cosmos 1833 Rocket 4.4 22:29:59 10° NNE 22:33:33 17° ENE 22:33:42 17° ENE
H-2A R/B 2.4 22:32:34 45° SSW 22:33:37 60° WSW 22:37:50 10° NNW
MetOp-A 4.0 22:34:03 56° SE 22:35:07 74° ENE 22:40:27 10° N
deb Centaur AC-2 4.3 22:32:32 10° W 22:38:33 74° S 22:39:03 67° SSE
Meteor 1-14 Rocket 4.1 22:41:16 60° SE 22:42:02 68° E 22:47:37 10° NNE
Cosmos 489 Rocket 4.3 22:39:53 10° NNW 22:46:05 72° ENE 22:47:05 60° SE
CZ-3C R/B 3.1 22:26:15 10° WSW 22:49:58 41° S 22:50:58 39° S
Terra 3.7 22:52:21 18° NE 22:52:21 18° NE 22:54:27 10° NNE
Intercosmos 25 4.3 22:52:28 42° NNW 22:52:28 42° NNW 22:54:48 10° N
Cosmos 2366 rocket 3.9 22:51:57 62° ESE 22:52:25 64° E 22:58:39 10° NNE
Cosmos 2082 Rocket 3.1 22:50:08 10° N 22:54:52 34° NE 22:54:52 34° NE
SPOT 5 3.5 22:55:02 46° SW 22:56:08 55° W 23:01:22 10° NNW
Cosmos 1850 Rocket 4.3 22:50:55 10° N 22:55:44 56° NE 22:55:44 56° NE
Cosmos 1238 Rocket 4.1 22:54:57 10° NNW 22:57:48 35° WNW 22:57:48 35° WNW
Cosmos 1954 Rocket 4.4 22:57:50 10° NNW 23:02:54 53° WSW 23:03:20 51° WSW
Okean 2 Rocket 4.5 23:02:42 30° WSW 23:03:44 34° W 23:07:46 10° NNW
Cosmos 2297 4.3 23:00:51 21° SW 23:04:38 55° WNW 23:10:14 10° N
OAO 3 Rocket 3.7 23:03:56 10° W 23:08:12 58° NW 23:08:12 58° NW
NOAA 11 4.2 23:12:15 80° NNW 23:12:15 80° NNW 23:17:27 10° NNW
USA 229 DEB 4.3 23:09:41 10° NNW 23:16:25 43° NE 23:16:52 42° ENE
USA 229 4.4 23:09:48 10° NNW 23:16:31 42° NE 23:16:58 42° ENE
Cosmos 1741 Rocket 4.3 23:11:19 10° NNW 23:15:38 62° NNW 23:15:38 62° NNW
Cosmos 2218 Rocket 4.3 23:18:42 51° SW 23:20:04 63° W 23:26:25 10° N
Timation 1 Rocket 4.5 23:27:35 71° NNW 23:27:35 71° NNW 23:33:03 10° NNE
Cosmos 1727 Rocket 4.2 23:35:27 10° N 23:40:45 66° NNW 23:40:45 66° NNW
ARGOS 4.4 23:46:44 36° WNW 23:46:44 36° WNW 23:50:53 10° NNW
H-2A R/B 3.2 23:53:54 42° NNW 23:53:54 42° NNW 23:57:27 10° NNW
